TimeCST,TemperatureF,Dew PointF,Humidity,Sea Level PressureIn,VisibilityMPH,Wind Direction,Wind SpeedMPH,Gust SpeedMPH,PrecipitationIn,Events,Conditions,WindDirDegrees,DateUTC
12:52 AM,15.1,8.1,74,30.40,10.0,WSW,3.5,-,N/A,,Clear,250,2013-01-14 06:52:00
1:52 AM,14.0,9.0,80,30.42,10.0,West,3.5,-,N/A,,Clear,260,2013-01-14 07:52:00
2:52 AM,14.0,10.4,86,30.42,10.0,West,4.6,-,N/A,,Clear,280,2013-01-14 08:52:00
3:52 AM,14.0,10.0,84,30.45,10.0,WNW,5.8,-,N/A,,Clear,290,2013-01-14 09:52:00
4:52 AM,14.0,10.0,84,30.44,10.0,NW,8.1,-,N/A,,Clear,310,2013-01-14 10:52:00
5:52 AM,14.0,8.6,79,30.42,10.0,NW,6.9,-,N/A,,Clear,320,2013-01-14 11:52:00
6:52 AM,12.0,8.1,84,30.46,10.0,NW,4.6,-,N/A,,Clear,320,2013-01-14 12:52:00
7:52 AM,14.0,10.0,84,30.46,10.0,North,4.6,-,N/A,,Clear,350,2013-01-14 13:52:00
8:52 AM,17.1,10.9,77,30.47,10.0,North,11.5,-,N/A,,Clear,350,2013-01-14 14:52:00
9:52 AM,19.0,12.9,77,30.50,10.0,North,8.1,-,N/A,,Clear,360,2013-01-14 15:52:00
10:52 AM,21.0,15.1,78,30.52,10.0,Variable,3.5,-,N/A,,Clear,0,2013-01-14 16:52:00
11:52 AM,21.0,15.1,78,30.49,10.0,NNW,5.8,-,N/A,,Clear,340,2013-01-14 17:52:00
12:52 PM,21.9,16.0,78,30.48,10.0,Calm,Calm,-,N/A,,Clear,0,2013-01-14 18:52:00
1:52 PM,24.1,17.1,75,30.48,10.0,Variable,3.5,-,N/A,,Clear,0,2013-01-14 19:52:00
2:52 PM,24.1,16.0,71,30.50,10.0,Calm,Calm,-,N/A,,Partly Cloudy,0,2013-01-14 20:52:00
3:52 PM,25.0,16.0,69,30.49,10.0,NNW,3.5,-,N/A,,Clear,340,2013-01-14 21:52:00
4:52 PM,23.0,15.1,72,30.49,10.0,Calm,Calm,-,N/A,,Clear,0,2013-01-14 22:52:00
5:52 PM,21.0,17.1,85,30.48,10.0,Calm,Calm,-,N/A,,Clear,0,2013-01-14 23:52:00
6:52 PM,18.0,15.1,88,30.48,10.0,Calm,Calm,-,N/A,,Clear,0,2013-01-15 00:52:00
7:52 PM,16.0,12.9,88,30.46,10.0,Calm,Calm,-,N/A,,Clear,0,2013-01-15 01:52:00
8:52 PM,15.1,12.0,88,30.46,10.0,NNW,4.6,-,N/A,,Clear,340,2013-01-15 02:52:00
9:52 PM,16.0,12.9,88,30.45,10.0,Calm,Calm,-,N/A,,Clear,0,2013-01-15 03:52:00
10:52 PM,15.1,12.0,88,30.46,10.0,Calm,Calm,-,N/A,,Clear,0,2013-01-15 04:52:00
11:52 PM,17.1,14.0,88,30.46,10.0,Calm,Calm,-,N/A,,Clear,0,2013-01-15 05:52:00